FW7196 Weather Reports


Display with metric or nautical units.
time (UTC)temp
F
wind
direction
speed
MPH
gust
MPH
rain 1hr
in
rain 24hr
in
rain mn
in
humidity
%
barometer
mb
20260510111538 49 324 2.0 9.0 0.00 0.28 0.00 96 1010.8
20260510110038 49 92 0.0 7.0 0.00 0.28 0.00 97 1010.8
20260510104543 48 139 1.0 5.0 0.00 0.28 0.00 96 1010.3
20260510103038 47 0 0.0 0.0 0.00 0.28 0.00 96 1010.1
20260510101535 47 0 0.0 0.0 0.00 0.28 0.00 96 1009.9
20260510100050 47 0 0.0 0.0 0.00 0.28 0.00 96 1009.3
20260510094537 47 0 0.0 0.0 0.00 0.28 0.00 96 1009.2
20260510093035 47 0 0.0 4.0 0.00 0.28 0.00 96 1009.4
20260510091537 47 0 0.0 0.0 0.00 0.28 0.00 96 1009.2
20260510091459 48 110 0.0 0.0 0.00 0.27 0.00 96 1009.2
20260510090035 47 0 0.0 2.0 0.00 0.28 0.00 96 1009.1
20260510084536 47 133 0.0 2.0 0.00 0.28 0.00 96 1009.7
20260510083042 47 0 0.0 1.0 0.00 0.28 0.00 96 1009.8
20260510081536 47 0 0.0 1.0 0.00 0.28 0.00 96 1009.8
20260510080035 47 0 0.0 4.0 0.00 0.28 0.00 96 1009.9
20260510074542 47 0 0.0 3.0 0.00 0.28 0.00 96 1009.8
20260510073037 47 0 0.0 2.0 0.00 0.28 0.00 96 1009.8
20260510071536 46 0 0.0 2.0 0.00 0.28 0.00 96 1009.7
20260510070047 46 0 0.0 0.0 0.00 0.28 0.00 96 1009.7
20260510064534 46 0 0.0 0.0 0.00 0.28 0.00 96 1009.9
20260510063042 46 0 0.0 0.0 0.00 0.28 0.00 96 1009.8
20260510061538 46 0 0.0 0.0 0.00 0.28 0.00 96 1009.9
20260510060041 46 0 0.0 0.0 0.00 0.28 0.00 95 1010.0
20260510054542 45 0 0.0 0.0 0.00 0.28 0.00 96 1010.2
20260510053036 45 0 0.0 0.0 0.00 0.28 0.00 95 1010.3
20260510051537 45 0 0.0 3.0 0.00 0.28 0.00 95 1010.1
20260510050035 45 0 0.0 7.0 0.00 0.28 0.00 96 1010.5
20260510044537 45 190 0.0 4.0 0.00 0.28 0.00 95 1010.6
20260510043037 45 0 0.0 2.0 0.00 0.28 0.00 95 1010.4
20260510041546 44 0 0.0 1.0 0.00 0.28 0.00 95 1010.4
20260510040034 44 0 0.0 3.0 0.00 0.28 0.00 95 1010.5
20260510034535 44 0 0.0 4.0 0.00 0.28 0.28 95 1010.5
20260510033039 44 0 0.0 6.0 0.00 0.28 0.28 95 1010.4
20260510031538 45 225 1.0 5.0 0.00 0.28 0.28 95 1010.4
20260510030036 44 0 0.0 2.0 0.00 0.28 0.28 95 1010.7
20260510024534 44 0 0.0 3.0 0.00 0.28 0.28 95 1010.5
20260510023035 45 0 0.0 4.0 0.00 0.28 0.28 95 1010.8
20260510021539 44 0 0.0 2.0 0.00 0.28 0.28 95 1010.9
20260510020036 44 0 0.0 6.0 0.00 0.28 0.28 95 1010.8
20260510014536 44 0 0.0 5.0 0.00 0.28 0.28 95 1011.0
20260510013039 44 0 0.0 0.0 0.00 0.28 0.28 95 1010.8
20260510011535 44 92 0.0 4.0 0.00 0.28 0.28 95 1010.8
20260510010036 44 0 0.0 3.0 0.00 0.28 0.28 95 1010.9
20260510004536 44 0 0.0 7.0 0.00 0.28 0.28 95 1010.9
20260510003051 44 0 1.0 4.0 0.00 0.28 0.28 94 1010.7
20260510001541 45 0 0.0 0.0 0.00 0.28 0.28 94 1010.6
20260510000039 45 0 0.0 0.0 0.00 0.28 0.28 94 1010.2
20260509234545 45 171 0.0 2.0 0.00 0.28 0.28 94 1010.1
20260509233034 45 0 0.0 2.0 0.00 0.28 0.28 94 1010.0
20260509231536 45 0 0.0 4.0 0.00 0.28 0.28 94 1010.1
20260509230036 45 0 0.0 2.0 0.00 0.28 0.28 94 1010.2
20260509224536 45 0 0.0 1.0 0.00 0.28 0.28 94 1010.3
20260509223035 45 228 0.0 3.0 0.00 0.28 0.28 94 1010.3
20260509221536 45 311 0.0 1.0 0.00 0.28 0.28 94 1010.3
20260509220052 45 0 0.0 0.0 0.00 0.28 0.28 94 1010.6
20260509214935 46 108 0.0 0.0 0.00 0.02 0.27 94 1010.6
20260509214540 45 0 0.0 3.0 0.01 0.28 0.28 94 1010.7
20260509213041 45 0 0.0 1.0 0.01 0.28 0.28 94 1010.8
20260509211543 45 0 0.0 1.0 0.01 0.28 0.28 94 1010.8
20260509210036 45 278 0.0 3.0 0.00 0.27 0.27 93 1010.8
20260509204542 46 0 0.0 1.0 0.00 0.27 0.27 93 1010.7
20260509203037 46 0 0.0 2.0 0.00 0.27 0.27 93 1010.8
20260509201534 46 0 0.0 3.0 0.01 0.27 0.27 93 1010.9
20260509200041 46 121 1.0 6.0 0.03 0.27 0.27 93 1010.8
20260509194541 46 0 0.0 4.0 0.05 0.27 0.27 94 1010.9
20260509193041 46 227 1.0 5.0 0.07 0.27 0.27 93 1011.1
20260509191536 46 0 0.0 5.0 0.08 0.26 0.26 93 1011.2
20260509190039 45 0 0.0 3.0 0.06 0.23 0.23 93 1011.4
20260509184538 46 160 0.0 4.0 0.07 0.22 0.22 93 1011.6
20260509183035 46 0 0.0 3.0 0.07 0.20 0.20 93 1011.5
20260509181535 46 0 0.0 4.0 0.06 0.18 0.18 94 1011.5
20260509180035 45 128 0.0 3.0 0.06 0.16 0.16 94 1011.7
20260509174536 45 0 0.0 0.0 0.07 0.15 0.15 94 1011.9
20260509173038 44 0 0.0 0.0 0.07 0.13 0.13 93 1012.1
20260509171538 44 0 0.0 0.0 0.07 0.11 0.11 92 1012.3
20260509170038 44 0 0.0 0.0 0.08 0.10 0.10 92 1012.4
20260509164536 45 0 0.0 0.0 0.06 0.08 0.08 91 1012.5
20260509163034 46 0 0.0 0.0 0.05 0.06 0.06 90 1012.7
20260509161533 46 0 0.0 3.0 0.02 0.03 0.03 88 1012.7
20260509160035 47 0 0.0 2.0 0.01 0.02 0.02 87 1013.0
20260509154536 47 0 0.0 2.0 0.02 0.02 0.02 87 1012.9
20260509153036 47 0 0.0 2.0 0.01 0.01 0.01 86 1013.2
20260509152054 48 55 0.0 4.0 0.00 0.00 0.01 86 1013.2
20260509151535 47 0 0.0 2.0 0.01 0.01 0.01 86 1013.2
20260509150036 48 0 0.0 1.0 0.01 0.01 0.01 83 1013.1
20260509144544 48 0 0.0 0.0 0.00 0.00 0.00 80 1013.0
20260509143039 49 159 1.0 5.0 0.00 0.00 0.00 71 1012.9
20260509141539 49 0 1.0 3.0 0.00 0.00 0.00 64 1012.9
20260509140054 49 0 0.0 6.0 0.00 0.00 0.00 64 1012.7
20260509134537 49 0 0.0 4.0 0.00 0.00 0.00 62 1012.8
20260509133839 50 82 0.0 0.0 0.00 0.00 0.00 61 1012.8
20260509133344 50 80 0.0 0.0 0.00 0.00 0.00 61 1012.8
20260509133036 49 0 0.0 6.0 0.00 0.00 0.00 61 1012.8
20260509132849 50 155 0.0 3.0 0.00 0.00 0.00 60 1012.7
20260509132345 50 130 0.0 4.0 0.00 0.00 0.00 61 1012.6
20260509131848 50 313 0.0 3.0 0.00 0.00 0.00 61 1012.7
20260509131545 49 138 1.0 7.0 0.00 0.00 0.00 61 1012.8
20260509130735 49 109 1.0 6.0 0.00 0.00 0.00 60 1012.7
20260509130035 48 0 2.0 7.0 0.00 0.00 0.00 63 1012.7
20260509125603 48 56 1.0 6.0 0.00 0.00 0.00 63 1012.6
20260509125048 48 75 0.0 6.0 0.00 0.00 0.00 64 1013.0
20260509124542 46 340 1.0 6.0 0.00 0.00 0.00 67 1013.1
20260509124539 47 55 0.0 3.0 0.00 0.00 0.00 67 1013.1
20260509123032 42 332 0.0 3.0 0.00 0.00 0.00 79 1013.2
20260509121551 40 0 0.0 0.0 0.00 0.00 0.00 84 1013.4
20260509120038 38 0 0.0 0.0 0.00 0.00 0.00 87 1013.5
20260509114535 36 0 0.0 0.0 0.00 0.00 0.00 92 1013.6
20260509113057 34 0 0.0 0.0 0.00 0.00 0.00 93 1013.8